Weather History for KFKN - December, 2012

Change the Weather History Date:

Tuesday, December 18, 2012

  Actual Average (KORF) Record (KORF)
Temperature  
Mean Temperature 54 °F 43 °F  
Max Temperature 64 °F 51 °F 75 °F (1984)
Min Temperature 42 °F 35 °F 17 °F (1875)
Degree Days  
Heating Degree Days 11 22  
Month to date heating degree days 350  
Since 1 July heating degree days 880  
Cooling Degree Days 0 0  
Month to date cooling degree days 0  
Year to date cooling degree days 1628  
Growing Degree Days 4 (Base 50)    
Moisture  
Dew Point 49 °F    
Average Humidity 75    
Maximum Humidity 100    
Minimum Humidity 48    
Precipitation  
Precipitation 0.00 in 0.11 in 0.83 in (1959)
Month to date precipitation 1.91  
Year to date precipitation 45.18  
Snow  
Snow 0.00 in 0.00 in 1.80 in (1981)
Month to date snowfall 0.4  
Since 1 July snowfall 0.4  
Snow Depth -    
Sea Level Pressure  
Sea Level Pressure 29.70 in    
Wind  
Wind Speed 8 mph (WSW)    
Max Wind Speed 15 mph    
Max Gust Speed 23 mph    
Visibility 10 miles    
Events      
T = Trace of Precipitation, MM = Missing Value Source: NWS Daily Summary

Daily Weather History Graph

Daily Weather History Graph

Search for Another Location

Airport or City:

Trip Planner

Search our weather history database for the weather conditions in past years. The results will help you decide how hot, cold, wet, or windy it might be!

Date:

Astronomy

Dec. 18, 2012 Rise Set
Actual Time 7:14 AM EST 4:54 PM EST
Civil Twilight 6:46 AM EST 5:23 PM EST
Nautical Twilight 6:13 AM EST 5:55 PM EST
Astronomical Twilight 5:42 AM EST 6:26 PM EST
Moon 11:02 AM EST (12/18) 11:08 PM EST (12/18)
Length of Visible Light 10h 37m
Length of Day
9h 39m
Waxing Crescent, 34% of the Moon is Illuminated
Dec 18
Waxing Crescent
Dec 20
First Quarter
Dec 28
Full
Jan 4
Last Quarter
Jan 11
New

Hourly Weather History & Observations

Time (EST) Temp. Windchill Dew Point Humidity Pressure Visibility Wind Dir Wind Speed Gust Speed Precip Events Conditions
12:15 AM 60.8 °F - 57.2 °F 88% 29.63 in 10.0 mi SSW 5.8 mph - N/A   Mostly Cloudy
12:35 AM 60.8 °F - 57.2 °F 88% 29.63 in 10.0 mi SSW 8.1 mph - N/A   Overcast
12:55 AM 60.8 °F - 57.2 °F 88% 29.64 in 10.0 mi SW 8.1 mph - N/A   Overcast
1:15 AM 60.8 °F - 57.2 °F 88% 29.64 in 10.0 mi SW 9.2 mph - N/A   Overcast
1:35 AM 60.8 °F - 55.4 °F 82% 29.64 in 10.0 mi SSW 9.2 mph - N/A   Overcast
1:55 AM 60.8 °F - 55.4 °F 82% 29.64 in 10.0 mi SW 6.9 mph - N/A   Scattered Clouds
2:15 AM 60.8 °F - 55.4 °F 82% 29.64 in 10.0 mi SW 5.8 mph - N/A   Mostly Cloudy
2:35 AM 59.0 °F - 55.4 °F 88% 29.65 in 10.0 mi SW 4.6 mph - N/A   Overcast
2:55 AM 57.2 °F - 55.4 °F 94% 29.65 in 10.0 mi SSW 6.9 mph - N/A   Mostly Cloudy
3:15 AM 59.0 °F - 55.4 °F 88% 29.64 in 10.0 mi SSW 8.1 mph - N/A   Scattered Clouds
3:35 AM 57.2 °F - 55.4 °F 94% 29.64 in 10.0 mi SSW 9.2 mph - N/A   Clear
3:55 AM 57.2 °F - 57.2 °F 100% 29.64 in 10.0 mi SSW 8.1 mph - N/A   Clear
4:15 AM 57.2 °F - 55.4 °F 94% 29.64 in 10.0 mi SW 5.8 mph - N/A   Clear
4:35 AM 55.4 °F - 55.4 °F 100% 29.63 in 10.0 mi SSW 5.8 mph - N/A   Clear
4:55 AM 55.4 °F - 55.4 °F 100% 29.62 in 10.0 mi SSW 6.9 mph - N/A   Clear
5:15 AM 55.4 °F - 55.4 °F 100% 29.63 in 10.0 mi SSW 6.9 mph - N/A   Clear
5:35 AM 55.4 °F - 55.4 °F 100% 29.63 in 10.0 mi SSW 6.9 mph - N/A   Clear
5:55 AM 55.4 °F - 55.4 °F 100% 29.63 in 10.0 mi SSW 5.8 mph - N/A   Clear
6:15 AM 55.4 °F - 55.4 °F 100% 29.63 in 10.0 mi South 5.8 mph - N/A   Clear
6:35 AM 55.4 °F - 55.4 °F 100% 29.65 in 10.0 mi SW 8.1 mph - N/A   Clear
6:55 AM 55.4 °F - 55.4 °F 100% 29.65 in 10.0 mi SW 8.1 mph - N/A   Clear
7:15 AM 55.4 °F - 55.4 °F 100% 29.66 in 10.0 mi SSW 6.9 mph - N/A   Clear
7:35 AM 55.4 °F - 55.4 °F 100% 29.66 in 10.0 mi SW 5.8 mph - N/A   Clear
7:55 AM 55.4 °F - 55.4 °F 100% 29.66 in 10.0 mi SW 5.8 mph - N/A   Clear
8:15 AM 55.4 °F - 55.4 °F 100% 29.67 in 10.0 mi SSW 8.1 mph - N/A   Clear
8:35 AM 57.2 °F - 57.2 °F 100% 29.67 in 10.0 mi WSW 6.9 mph - N/A   Mostly Cloudy
8:55 AM 57.2 °F - 57.2 °F 100% 29.67 in 10.0 mi WSW 10.4 mph - N/A   Overcast
9:15 AM 59.0 °F - 57.2 °F 94% 29.67 in 10.0 mi WSW 6.9 mph - N/A   Overcast
9:35 AM 60.8 °F - 57.2 °F 88% 29.67 in 10.0 mi WSW 10.4 mph - N/A   Mostly Cloudy
9:55 AM 60.8 °F - 55.4 °F 82% 29.67 in 10.0 mi WSW 10.4 mph - N/A   Mostly Cloudy
10:15 AM 60.8 °F - 55.4 °F 82% 29.67 in 10.0 mi West 10.4 mph 16.1 mph N/A   Scattered Clouds
10:35 AM 62.6 °F - 55.4 °F 77% 29.66 in 10.0 mi WSW 9.2 mph 17.3 mph N/A   Clear
10:55 AM 62.6 °F - 55.4 °F 77% 29.66 in 10.0 mi West 9.2 mph - N/A   Clear
11:15 AM 64.4 °F - 51.8 °F 64% 29.66 in 10.0 mi West 9.2 mph - N/A   Mostly Cloudy
11:35 AM 64.4 °F - 51.8 °F 64% 29.66 in 10.0 mi West 6.9 mph - N/A   Mostly Cloudy
11:55 AM 62.6 °F - 48.2 °F 59% 29.65 in 10.0 mi West 10.4 mph - N/A   Mostly Cloudy
12:15 PM 64.4 °F - 48.2 °F 56% 29.64 in 10.0 mi West 6.9 mph 16.1 mph N/A   Mostly Cloudy
12:35 PM 62.6 °F - 46.4 °F 55% 29.63 in 10.0 mi West 12.7 mph 17.3 mph N/A   Mostly Cloudy
12:55 PM 62.6 °F - 48.2 °F 59% 29.63 in 10.0 mi West 11.5 mph - N/A   Mostly Cloudy
1:15 PM 60.8 °F - 48.2 °F 63% 29.63 in 10.0 mi West 11.5 mph 16.1 mph N/A   Mostly Cloudy
1:35 PM 60.8 °F - 50.0 °F 68% 29.63 in 10.0 mi West 6.9 mph - N/A   Overcast
1:55 PM 62.6 °F - 50.0 °F 63% 29.64 in 10.0 mi West 10.4 mph - N/A   Mostly Cloudy
2:15 PM 60.8 °F - 51.8 °F 72% 29.64 in 10.0 mi WSW 6.9 mph - N/A   Mostly Cloudy
2:35 PM 62.6 °F - 51.8 °F 68% 29.65 in 10.0 mi West 6.9 mph - N/A   Scattered Clouds
2:55 PM 62.6 °F - 46.4 °F 55% 29.65 in 10.0 mi West 15.0 mph 19.6 mph N/A   Mostly Cloudy
3:15 PM 62.6 °F - 44.6 °F 52% 29.65 in 10.0 mi WNW 12.7 mph 18.4 mph N/A   Scattered Clouds
3:35 PM 62.6 °F - 42.8 °F 48% 29.66 in 10.0 mi West 11.5 mph 20.7 mph N/A   Clear
3:55 PM 62.6 °F - 42.8 °F 48% 29.67 in 10.0 mi West 11.5 mph 20.7 mph N/A   Clear
4:15 PM 62.6 °F - 42.8 °F 48% 29.68 in 10.0 mi West 10.4 mph 16.1 mph N/A   Scattered Clouds
4:35 PM 59.0 °F - 44.6 °F 59% 29.70 in 4.0 mi West 13.8 mph 23.0 mph N/A   Overcast
4:55 PM 55.4 °F - 44.6 °F 67% 29.70 in 10.0 mi West 6.9 mph - N/A   Scattered Clouds
5:15 PM 55.4 °F - 42.8 °F 63% 29.71 in 10.0 mi West 8.1 mph - N/A   Clear
5:35 PM 55.4 °F - 42.8 °F 63% 29.72 in 10.0 mi West 8.1 mph - N/A   Clear
5:55 PM 53.6 °F - 41.0 °F 62% 29.72 in 10.0 mi WNW 6.9 mph - N/A   Clear
6:15 PM 53.6 °F - 39.2 °F 58% 29.74 in 10.0 mi West 10.4 mph - N/A   Scattered Clouds
6:35 PM 53.6 °F - 39.2 °F 58% 29.75 in 10.0 mi WNW 6.9 mph - N/A   Scattered Clouds
6:55 PM 53.6 °F - 39.2 °F 58% 29.76 in 10.0 mi West 9.2 mph - N/A   Scattered Clouds
7:15 PM 53.6 °F - 39.2 °F 58% 29.78 in 10.0 mi West 6.9 mph - N/A   Clear
7:35 PM 53.6 °F - 39.2 °F 58% 29.80 in 10.0 mi WNW 9.2 mph - N/A   Scattered Clouds
7:55 PM 51.8 °F - 39.2 °F 62% 29.81 in 10.0 mi WNW 11.5 mph 17.3 mph N/A   Clear
8:15 PM 51.8 °F - 37.4 °F 58% 29.82 in 10.0 mi West 10.4 mph - N/A   Clear
8:35 PM 51.8 °F - 37.4 °F 58% 29.83 in 10.0 mi WNW 11.5 mph 16.1 mph N/A   Clear
8:55 PM 50.0 °F - 37.4 °F 62% 29.83 in 10.0 mi West 9.2 mph - N/A   Clear
9:15 PM 50.0 °F - 35.6 °F 58% 29.84 in 10.0 mi West 9.2 mph - N/A   Clear
9:35 PM 50.0 °F - 35.6 °F 58% 29.85 in 10.0 mi West 9.2 mph - N/A   Clear
9:55 PM 48.2 °F - 35.6 °F 62% 29.86 in 10.0 mi West 10.4 mph - N/A   Clear
10:15 PM 48.2 °F - 35.6 °F 62% 29.86 in 10.0 mi West 8.1 mph - N/A   Clear
10:35 PM 46.4 °F 42.9 °F 35.6 °F 66% 29.86 in 10.0 mi West 6.9 mph - N/A   Clear
10:55 PM 46.4 °F 43.5 °F 35.6 °F 66% 29.86 in 10.0 mi WNW 5.8 mph - N/A   Clear
11:15 PM 46.4 °F 45.2 °F 35.6 °F 66% 29.87 in 10.0 mi WNW 3.5 mph - N/A   Clear
11:35 PM 44.6 °F - 35.6 °F 71% 29.86 in 10.0 mi Calm Calm - N/A   Clear
11:55 PM 42.8 °F 41.1 °F 35.6 °F 76% 29.85 in 10.0 mi WNW 3.5 mph - N/A   Clear